• En Colombia
  • Lista de países
  • Para 7 días
  • Temperatura del agua
  • El tiempo en el mapa
  • Informadores
  • user-avatar
    Iniciar sesión

    Tiempo cada hora Korçe

    Hoy, 15 Diciembre, Domingo

    Tiempo Temperatura Precipitaciones Viento Presión Humedad
    00:00 +3°C° 0 mm 1 mps 660 mmHg 89%
    01:00 +3°C° 0 mm 1 mps 661 mmHg 87%
    02:00 +3°C° 0 mm 1 mps 661 mmHg 86%
    03:00 +3°C° 0 mm 1 mps 662 mmHg 84%
    04:00 +3°C° 0 mm 1 mps 662 mmHg 83%
    05:00 +3°C° 0 mm 1 mps 663 mmHg 81%
    06:00 +3°C° 0 mm 2 mps 663 mmHg 78%
    07:00 +3°C° 0 mm 2 mps 664 mmHg 77%
    08:00 +4°C° 0 mm 2 mps 665 mmHg 75%
    09:00 +7°C° 0 mm 1 mps 666 mmHg 74%
    10:00 +9°C° 0 mm 1 mps 667 mmHg 73%
    11:00 +10°C° 0 mm 1 mps 668 mmHg 71%
    12:00 +11°C° 0 mm 1 mps 668 mmHg 70%
    13:00 +12°C° 0 mm 1 mps 668 mmHg 69%
    14:00 +10°C° 0 mm 1 mps 668 mmHg 73%
    15:00 +9°C° 0 mm 1 mps 668 mmHg 76%
    16:00 +8°C° 0 mm 1 mps 668 mmHg 80%
    17:00 +8°C° 0 mm 1 mps 668 mmHg 80%
    18:00 +7°C° 0 mm 1 mps 668 mmHg 79%
    19:00 +7°C° 0 mm 1 mps 669 mmHg 79%
    20:00 +6°C° 0 mm 1 mps 669 mmHg 80%
    21:00 +5°C° 0 mm 2 mps 669 mmHg 81%
    22:00 +5°C° 0 mm 2 mps 669 mmHg 81%
    23:00 +5°C° 0 mm 2 mps 670 mmHg 82%

    Mañana, 16 Diciembre, Lunes

    Tiempo Temperatura Precipitaciones Viento Presión Humedad
    00:00 +5°C° 0 mm 2 mps 670 mmHg 83%
    01:00 +4°C° 0 mm 2 mps 670 mmHg 84%
    02:00 +4°C° 0 mm 2 mps 670 mmHg 84%
    03:00 +4°C° 0 mm 2 mps 670 mmHg 85%
    04:00 +4°C° 0 mm 2 mps 670 mmHg 85%
    05:00 +4°C° 0 mm 2 mps 670 mmHg 85%
    06:00 +4°C° 0 mm 2 mps 670 mmHg 85%
    07:00 +5°C° 0 mm 1 mps 670 mmHg 86%
    08:00 +5°C° 0 mm 2 mps 671 mmHg 84%
    09:00 +7°C° 0 mm 2 mps 672 mmHg 82%
    10:00 +9°C° 0 mm 2 mps 672 mmHg 80%
    11:00 +9°C° 0 mm 2 mps 672 mmHg 77%
    12:00 +11°C° 0 mm 1 mps 672 mmHg 75%
    13:00 +11°C° 0 mm 1 mps 672 mmHg 72%
    14:00 +10°C° 0 mm 1 mps 671 mmHg 77%
    15:00 +9°C° 0 mm 1 mps 671 mmHg 81%
    16:00 +8°C° 0 mm 1 mps 671 mmHg 85%
    17:00 +8°C° 0 mm 1 mps 671 mmHg 86%
    18:00 +7°C° 0 mm 1 mps 671 mmHg 88%
    19:00 +6°C° 0 mm 1 mps 671 mmHg 89%
    20:00 +6°C° 0 mm 1 mps 671 mmHg 88%
    21:00 +6°C° 0 mm 1 mps 671 mmHg 88%
    22:00 +6°C° 0 mm 1 mps 671 mmHg 88%
    23:00 +6°C° 0 mm 1 mps 671 mmHg 86%

    Pasado mañana, 17 Diciembre, Martes

    Tiempo Temperatura Precipitaciones Viento Presión Humedad
    00:00 +6°C° 0 mm 1 mps 670 mmHg 85%
    01:00 +5°C° 0 mm 1 mps 670 mmHg 84%
    02:00 +5°C° 0 mm 1 mps 670 mmHg 83%
    03:00 +5°C° 0 mm 1 mps 670 mmHg 82%
    04:00 +5°C° 0 mm 1 mps 670 mmHg 81%
    05:00 +5°C° 0 mm 1 mps 670 mmHg 78%
    06:00 +5°C° 0 mm 1 mps 670 mmHg 76%
    07:00 +5°C° 0 mm 1 mps 670 mmHg 74%
    08:00 +7°C° 0 mm 1 mps 671 mmHg 71%
    09:00 +8°C° 0 mm 1 mps 671 mmHg 68%
    10:00 +10°C° 0 mm 1 mps 672 mmHg 66%
    11:00 +11°C° 0 mm 1 mps 672 mmHg 65%
    12:00 +11°C° 0 mm 1 mps 672 mmHg 64%
    13:00 +12°C° 0 mm 1 mps 672 mmHg 62%
    14:00 +11°C° 0 mm 1 mps 671 mmHg 69%
    15:00 +9°C° 0 mm 1 mps 671 mmHg 76%
    16:00 +8°C° 0 mm 1 mps 670 mmHg 82%
    17:00 +8°C° 0 mm 1 mps 670 mmHg 83%
    18:00 +7°C° 0 mm 1 mps 670 mmHg 84%
    19:00 +5°C° 0 mm 2 mps 670 mmHg 85%
    20:00 +5°C° 0 mm 2 mps 670 mmHg 84%
    21:00 +5°C° 0 mm 2 mps 670 mmHg 84%
    22:00 +5°C° 0 mm 2 mps 670 mmHg 84%
    23:00 +4°C° 0 mm 2 mps 670 mmHg 84%

    18 Diciembre, Miércoles

    Tiempo Temperatura Precipitaciones Viento Presión Humedad
    00:00 +4°C° 0 mm 2 mps 670 mmHg 84%
    01:00 +4°C° 0 mm 2 mps 670 mmHg 84%
    02:00 +4°C° 0 mm 2 mps 670 mmHg 83%
    03:00 +4°C° 0 mm 2 mps 670 mmHg 82%
    04:00 +4°C° 0 mm 2 mps 670 mmHg 81%
    05:00 +4°C° 0 mm 2 mps 670 mmHg 80%
    06:00 +4°C° 0 mm 2 mps 670 mmHg 79%
    07:00 +4°C° 0 mm 2 mps 670 mmHg 78%
    08:00 +5°C° 0 mm 2 mps 670 mmHg 75%
    09:00 +7°C° 0 mm 2 mps 671 mmHg 72%
    10:00 +9°C° 0 mm 2 mps 671 mmHg 69%
    11:00 +9°C° 0 mm 2 mps 671 mmHg 67%
    12:00 +10°C° 0 mm 2 mps 671 mmHg 64%
    13:00 +12°C° 0 mm 2 mps 671 mmHg 62%
    14:00 +10°C° 0 mm 2 mps 671 mmHg 68%
    15:00 +9°C° 0 mm 2 mps 670 mmHg 75%
    16:00 +7°C° 0 mm 2 mps 670 mmHg 82%
    17:00 +7°C° 0 mm 2 mps 670 mmHg 82%
    18:00 +6°C° 0 mm 2 mps 670 mmHg 83%
    19:00 +6°C° 0 mm 2 mps 670 mmHg 84%
    20:00 +6°C° 0 mm 2 mps 670 mmHg 83%
    21:00 +5°C° 0 mm 2 mps 670 mmHg 81%
    22:00 +5°C° 0 mm 2 mps 670 mmHg 80%
    23:00 +5°C° 0 mm 2 mps 669 mmHg 82%

    19 Diciembre, Jueves

    Tiempo Temperatura Precipitaciones Viento Presión Humedad
    00:00 +4°C° 0 mm 3 mps 669 mmHg 83%
    01:00 +4°C° 0 mm 3 mps 669 mmHg 84%
    02:00 +4°C° 0 mm 3 mps 669 mmHg 86%
    03:00 +4°C° 0 mm 3 mps 669 mmHg 88%
    04:00 +4°C° 0 mm 3 mps 668 mmHg 90%
    05:00 +5°C° 0 mm 2 mps 668 mmHg 91%
    06:00 +5°C° 0 mm 2 mps 668 mmHg 91%
    07:00 +5°C° 0 mm 2 mps 668 mmHg 92%
    08:00 +5°C° 0.2 mm 3 mps 668 mmHg 89%
    09:00 +7°C° 0.2 mm 3 mps 669 mmHg 87%
    10:00 +8°C° 0.2 mm 3 mps 669 mmHg 84%
    11:00 +8°C° 0.9 mm 3 mps 668 mmHg 88%
    12:00 +8°C° 0.9 mm 3 mps 668 mmHg 91%
    13:00 +7°C° 0.9 mm 3 mps 667 mmHg 94%
    14:00 +7°C° 1.6 mm 3 mps 667 mmHg 94%
    15:00 +7°C° 1.6 mm 2 mps 667 mmHg 95%
    16:00 +7°C° 1.6 mm 2 mps 667 mmHg 95%
    17:00 +6°C° 0.1 mm 2 mps 667 mmHg 95%
    18:00 +6°C° 0.1 mm 2 mps 667 mmHg 95%
    19:00 +5°C° 0.1 mm 2 mps 667 mmHg 94%
    20:00 +5°C° 0.2 mm 2 mps 667 mmHg 93%
    21:00 +4°C° 0.2 mm 3 mps 667 mmHg 92%
    22:00 +4°C° 0.2 mm 3 mps 667 mmHg 91%
    23:00 +5°C° 0.1 mm 2 mps 667 mmHg 92%

    20 Diciembre, Viernes

    Tiempo Temperatura Precipitaciones Viento Presión Humedad
    00:00 +5°C° 0.1 mm 2 mps 667 mmHg 94%
    01:00 +5°C° 0.1 mm 2 mps 666 mmHg 95%
    02:00 +5°C° 0.1 mm 2 mps 666 mmHg 96%
    03:00 +6°C° 0.1 mm 2 mps 666 mmHg 96%
    04:00 +6°C° 0.1 mm 2 mps 666 mmHg 97%
    05:00 +6°C° 0.1 mm 2 mps 666 mmHg 97%
    06:00 +6°C° 0.1 mm 2 mps 666 mmHg 98%
    07:00 +6°C° 0.1 mm 2 mps 667 mmHg 98%
    08:00 +6°C° 0.2 mm 2 mps 667 mmHg 97%
    09:00 +7°C° 0.2 mm 2 mps 667 mmHg 96%
    10:00 +7°C° 0.2 mm 2 mps 667 mmHg 95%
    11:00 +8°C° 0.1 mm 3 mps 667 mmHg 92%
    12:00 +8°C° 0.1 mm 3 mps 667 mmHg 88%
    13:00 +9°C° 0.1 mm 3 mps 667 mmHg 84%
    14:00 +8°C° 0.1 mm 3 mps 666 mmHg 87%
    15:00 +8°C° 0.1 mm 2 mps 666 mmHg 90%
    16:00 +7°C° 0.1 mm 2 mps 666 mmHg 92%
    17:00 +7°C° 0 mm 3 mps 666 mmHg 93%
    18:00 +7°C° 0 mm 3 mps 665 mmHg 95%
    19:00 +5°C° 0 mm 3 mps 665 mmHg 96%
    20:00 +5°C° 0 mm 3 mps 665 mmHg 96%
    21:00 +5°C° 0 mm 3 mps 665 mmHg 96%
    22:00 +5°C° 0 mm 3 mps 665 mmHg 95%
    23:00 +5°C° 0.1 mm 3 mps 665 mmHg 95%
    Mostrar más